FW3160 Weather Reports


Display with metric or nautical units.
time (UTC)temp
F
wind
direction
speed
MPH
gust
MPH
rain 1hr
in
rain 24hr
in
rain mn
in
humidity
%
barometer
mb
20260504221504 73 208 0.0 0.0 0.00 0.06 0.06 95 1006.7
20260504220003 73 359 0.0 0.0 0.00 0.06 0.06 94 1006.7
20260504214600 74 209 0.0 1.0 0.00 0.06 0.06 94 1006.5
20260504213123 74 212 0.0 0.0 0.00 0.06 0.06 94 1006.6
20260504211556 74 206 0.0 0.0 0.00 0.06 0.06 94 1006.6
20260504210059 74 206 0.0 1.0 0.00 0.06 0.06 94 1006.8
20260504204604 75 208 0.0 1.0 0.00 0.06 0.06 94 1006.6
20260504203052 74 208 0.0 0.0 0.00 0.06 0.06 94 1007.0
20260504201550 74 206 0.0 0.0 0.00 0.06 0.06 94 1007.2
20260504200053 74 213 0.0 2.0 0.00 0.06 0.06 94 1007.2
20260504194548 74 211 0.0 2.0 0.00 0.06 0.06 94 1007.2
20260504193046 74 207 0.0 0.0 0.01 0.06 0.06 94 1007.5
20260504191545 74 212 0.0 2.0 0.02 0.06 0.06 94 1007.6
20260504190043 75 210 0.0 2.0 0.04 0.06 0.06 93 1007.6
20260504184540 75 206 0.0 2.0 0.05 0.06 0.06 93 1007.7
20260504183039 75 208 0.0 1.0 0.05 0.05 0.05 92 1007.7
20260504181542 76 359 0.0 2.0 0.03 0.03 0.03 91 1007.7
20260504180034 76 210 0.0 2.0 0.02 0.02 0.02 89 1007.9
20260504174530 77 210 0.0 2.0 0.01 0.01 0.01 87 1008.1
20260504173029 78 209 0.0 2.0 0.00 0.00 0.00 83 1008.1
20260504171527 78 209 0.0 5.0 0.00 0.00 0.00 82 1008.1
20260504081556 98 210 3.0 7.0 0.00 0.00 0.00 47 1002.3
20260504044525 93 273 1.0 6.0 0.00 0.00 0.00 58 1006.5
20260504043035 92 254 2.0 8.0 0.00 0.00 0.00 58 1006.8
20260504041521 92 299 2.0 7.0 0.00 0.00 0.00 62 1006.8
20260504040024 92 298 2.0 5.0 0.00 0.00 0.00 62 1007.0
20260504034517 91 262 2.0 6.0 0.00 0.00 0.00 60 1007.2
20260504033014 90 254 2.0 5.0 0.00 0.00 0.00 65 1007.2
20260504031512 89 229 4.0 8.0 0.00 0.00 0.00 63 1007.4
20260504030016 88 319 3.0 5.0 0.00 0.00 0.00 66 1007.5
20260504024508 87 345 0.0 4.0 0.00 0.00 0.00 66 1007.5
20260504023008 86 346 2.0 4.0 0.00 0.00 0.00 66 1007.8
20260504020057 85 354 1.0 3.0 0.00 0.00 0.00 72 1007.7
20260504014543 83 354 0.0 2.0 0.00 0.00 0.00 77 1007.7
20260504013036 82 354 0.0 2.0 0.00 0.00 0.00 78 1007.7
20260504011526 81 4 0.0 3.0 0.00 0.00 0.00 81 1007.6
20260504010022 80 4 0.0 0.0 0.00 0.00 0.00 79 1007.3
20260504004519 79 4 0.0 1.0 0.00 0.00 0.00 82 1007.2
20260504003016 78 4 0.0 1.0 0.00 0.00 0.00 84 1007.1
20260504001513 76 4 0.0 0.0 0.00 0.00 0.00 87 1006.8
20260504000012 75 4 0.0 0.0 0.00 0.00 0.00 89 1006.7
20260503234511 73 4 0.0 0.0 0.00 0.00 0.00 89 1006.6
20260503233018 73 4 0.0 0.0 0.00 0.00 0.00 89 1006.5
20260503231507 73 4 0.0 0.0 0.00 0.00 0.00 89 1006.5
20260503230006 73 4 0.0 0.0 0.00 0.00 0.00 89 1006.3
20260503224505 73 4 0.0 0.0 0.00 0.00 0.00 88 1006.2
20260503223002 73 4 0.0 0.0 0.00 0.00 0.00 89 1006.0